BAW309 LFPG-EGLL

Flight info

Callsign BAW309
Flight time N/A
Altitude 24000
Route OPALE DCT KESAX DCT DIMAL DCT ALESO
Aircraft A320/M-SDE3FGHIRWY/LB1

Departure

Time 2026-04-30 17:49
Airport Charles de Gaulle International Airport (LFPG)

Arrival

Time N/A
Airport London Heathrow Airport (EGLL)
Time Latitude Longitude Altitude Speed Heading
2026-04-30 17:39 49.00197 2.56738 354 ft 0 kts 355°
2026-04-30 17:41 49.00123 2.56797 361 ft 0 kts 266°
2026-04-30 17:44 49.00107 2.56494 354 ft 15 kts 265°
2026-04-30 17:46 49.00072 2.55717 354 ft 15 kts 268°
2026-04-30 17:47 48.99781 2.55808 357 ft 16 kts 173°
2026-04-30 17:48 48.99698 2.55814 356 ft 3 kts 170°
2026-04-30 17:48 48.99635 2.56501 355 ft 81 kts 85°
2026-04-30 17:49 48.99980 2.62506 1764 ft 162 kts 87°
2026-04-30 17:50 49.00431 2.71327 3541 ft 242 kts 89°
2026-04-30 17:51 49.00826 2.79462 5661 ft 274 kts 88°
2026-04-30 17:52 49.02901 2.87304 8117 ft 290 kts 29°
2026-04-30 17:53 49.12249 2.81480 10873 ft 352 kts 322°
2026-04-30 17:54 49.20370 2.71847 13122 ft 380 kts 323°
2026-04-30 17:55 49.28856 2.61862 15606 ft 391 kts 323°
2026-04-30 17:56 49.37647 2.51458 17794 ft 407 kts 323°
2026-04-30 17:57 49.44452 2.43376 19452 ft 417 kts 323°
2026-04-30 17:58 49.51418 2.35065 21059 ft 427 kts 323°
2026-04-30 17:59 49.60913 2.23699 22957 ft 440 kts 323°
2026-04-30 18:00 49.70736 2.11871 24153 ft 456 kts 323°
2026-04-30 18:00 49.78353 2.02657 24173 ft 465 kts 323°
2026-04-30 18:01 49.83451 1.96465 24167 ft 465 kts 323°
2026-04-30 18:02 49.91077 1.87177 24168 ft 465 kts 323°
2026-04-30 18:02 49.98685 1.77831 24153 ft 465 kts 322°
2026-04-30 18:03 50.06306 1.68487 24142 ft 465 kts 327°
2026-04-30 18:04 50.14931 1.61721 24140 ft 463 kts 337°
2026-04-30 18:05 50.26576 1.53273 24145 ft 464 kts 336°
2026-04-30 18:06 50.38264 1.44718 24156 ft 464 kts 336°
2026-04-30 18:07 50.49683 1.35353 24149 ft 465 kts 321°
2026-04-30 18:08 50.56441 1.24424 24142 ft 466 kts 312°
2026-04-30 18:09 50.65501 1.09901 24152 ft 467 kts 315°
2026-04-30 18:10 50.74713 0.95469 24176 ft 466 kts 314°
2026-04-30 18:11 50.83545 0.81302 21171 ft 438 kts 314°
2026-04-30 18:11 50.89680 0.71484 19985 ft 413 kts 314°
2026-04-30 18:12 50.95679 0.61832 18495 ft 407 kts 314°
2026-04-30 18:13 50.99667 0.55389 16784 ft 418 kts 314°
2026-04-30 18:13 51.05098 0.46581 14629 ft 411 kts 313°
2026-04-30 18:14 51.09045 0.40270 13380 ft 390 kts 315°
2026-04-30 18:15 51.14534 0.31964 12877 ft 332 kts 316°
2026-04-30 18:15 51.19375 0.24616 11380 ft 316 kts 315°
2026-04-30 18:16 51.22606 0.19658 10605 ft 317 kts 315°
2026-04-30 18:16 51.25741 0.14843 10077 ft 310 kts 315°
2026-04-30 18:17 51.27291 0.12455 9727 ft 309 kts 315°
2026-04-30 18:17 51.28821 0.10091 9231 ft 304 kts 315°
2026-04-30 18:17 51.31927 0.05597 8252 ft 298 kts 324°
2026-04-30 18:18 51.33473 0.03399 8206 ft 297 kts 303°
2026-04-30 18:18 51.34295 0.00415 8212 ft 293 kts 275°
2026-04-30 18:18 51.34378 -0.02817 8195 ft 290 kts 265°
2026-04-30 18:18 51.34285 -0.06033 8191 ft 290 kts 263°
2026-04-30 18:19 51.34208 -0.09258 8189 ft 291 kts 265°
2026-04-30 18:19 51.34210 -0.12502 8190 ft 292 kts 268°
2026-04-30 18:19 51.34294 -0.15750 8190 ft 292 kts 270°
2026-04-30 18:19 51.34418 -0.18970 8185 ft 284 kts 270°
2026-04-30 18:20 51.34563 -0.22038 8186 ft 270 kts 271°
2026-04-30 18:20 51.34665 -0.23991 8188 ft 262 kts 271°
2026-04-30 18:20 51.34818 -0.26879 8191 ft 260 kts 271°
2026-04-30 18:20 51.34958 -0.29754 8191 ft 259 kts 270°
2026-04-30 18:21 51.35087 -0.32625 8186 ft 259 kts 271°
2026-04-30 18:21 51.35251 -0.35548 7775 ft 267 kts 271°
2026-04-30 18:21 51.35403 -0.38516 7376 ft 266 kts 271°
2026-04-30 18:21 51.35550 -0.41401 7183 ft 255 kts 271°
2026-04-30 18:22 51.35700 -0.44224 7190 ft 255 kts 271°
2026-04-30 18:22 51.35999 -0.49873 7195 ft 255 kts 271°
2026-04-30 18:22 51.36150 -0.52693 7191 ft 254 kts 271°
2026-04-30 18:23 51.36300 -0.55515 7197 ft 255 kts 271°
2026-04-30 18:23 51.36448 -0.58338 7194 ft 255 kts 271°
2026-04-30 18:23 51.36599 -0.61157 7162 ft 252 kts 271°
2026-04-30 18:23 51.36744 -0.63944 6881 ft 251 kts 271°
2026-04-30 18:24 51.37034 -0.69498 6302 ft 249 kts 271°
2026-04-30 18:24 51.37180 -0.72257 6015 ft 248 kts 271°
2026-04-30 18:24 51.37326 -0.74960 5721 ft 247 kts 271°
2026-04-30 18:25 51.37484 -0.77684 5411 ft 246 kts 271°
2026-04-30 18:25 51.37820 -0.83096 4790 ft 243 kts 271°
2026-04-30 18:25 51.37983 -0.85787 4437 ft 243 kts 271°
2026-04-30 18:26 51.38293 -0.91129 3991 ft 244 kts 271°
2026-04-30 18:26 51.38513 -0.93844 3979 ft 249 kts 284°
2026-04-30 18:26 51.39392 -0.96151 3982 ft 240 kts 318°
2026-04-30 18:27 51.42271 -0.97593 3982 ft 209 kts 359°
2026-04-30 18:27 51.43694 -0.97449 3967 ft 201 kts 27°
2026-04-30 18:28 51.45612 -0.94519 3988 ft 191 kts 60°
2026-04-30 18:28 51.46401 -0.92791 3997 ft 192 kts 60°
2026-04-30 18:28 51.47508 -0.89081 3995 ft 179 kts 93°
2026-04-30 18:29 51.47526 -0.87081 4003 ft 180 kts 95°
2026-04-30 18:29 51.47571 -0.81184 3965 ft 165 kts 95°
2026-04-30 18:30 51.47594 -0.77612 3618 ft 157 kts 96°
2026-04-30 18:30 51.47616 -0.74152 3221 ft 153 kts 95°
2026-04-30 18:31 51.47626 -0.72447 3024 ft 152 kts 95°
2026-04-30 18:31 51.47646 -0.69086 2624 ft 150 kts 95°
2026-04-30 18:32 51.47665 -0.65773 2227 ft 147 kts 93°
2026-04-30 18:32 51.47674 -0.64125 2032 ft 147 kts 93°
2026-04-30 18:32 51.47683 -0.62490 1829 ft 146 kts 93°
2026-04-30 18:33 51.47690 -0.61050 1664 ft 145 kts 92°
2026-04-30 18:33 51.47695 -0.60168 1559 ft 141 kts 92°
2026-04-30 18:34 51.47697 -0.59754 1522 ft 137 kts 92°